Location: Maello
(40.8093°N, 4.5119°W)
Time: 16:42:28
(UTC+00:00)

Daily predictions for brighter satellites

Satellite Brightness Start Highest point End
(mag) Time Altitude Azimuth Time Altitude Azimuth Time Altitude Azimuth
Cosmos 2285 Rocket 4.5 20:19:37 10° NNW 20:25:51 64° WSW 20:32:01 10° S
Cosmos 1356 Rocket 3.8 20:22:32 10° NNW 20:26:48 68° W 20:30:57 10° S
Cosmos 1602 Rocket 3.9 20:23:12 10° SSE 20:27:26 48° E 20:31:43 10° NNE
CZ-2C R/B 3.8 20:23:22 10° NNE 20:28:09 76° ESE 20:32:55 10° S
Atlas Centaur 2 3.2 20:27:20 10° SW 20:32:07 29° S 20:37:55 10° ESE
Cosmos 2263 Rocket 2.6 20:27:28 10° NNW 20:32:59 63° WSW 20:38:27 10° S
Cosmos 2219 Rocket 3.7 20:31:45 10° SE 20:35:10 17° E 20:38:36 10° ENE
Cosmos 2360 Rocket 2.4 20:31:13 10° S 20:36:39 52° ESE 20:42:08 10° NNE
Cosmos 1626 4.4 20:33:44 10° SW 20:36:56 27° WNW 20:40:09 10° NNW
FALCON 9 R/B 2.5 20:38:20 10° WSW 20:39:49 14° SSW 20:41:06 10° SSE
Meteor 2-1 Rocket 4.4 20:34:11 10° N 20:39:59 64° ENE 20:45:50 10° SSE
IRIS 4.1 20:36:28 10° WSW 20:40:08 63° SSE 20:42:41 10° E
Meteor 2-16 Rocket 4.4 20:34:16 10° S 20:40:19 80° E 20:46:26 10° N
Cosmos 2333 Rocket 3.4 20:40:31 10° SSE 20:44:49 23° E 20:49:08 10° NE
Resurs 01 Rocket 1.6 20:46:12 10° SSE 20:50:36 79° ENE 20:55:01 10° N
Cosmos 1818 3.5 20:46:20 10° SSW 20:51:43 75° ESE 20:57:10 10° NE
SL-16 R/B 3.4 20:50:05 10° SW 20:55:32 48° WNW 21:01:02 10° NNE
Cosmos-2242 4.0 20:52:17 10° NNE 20:56:10 31° ENE 20:59:05 15° SE
CZ-2C R/B 3.6 20:51:05 10° N 20:56:17 50° WNW 21:01:21 10° SW
ERS-1 Rocket 4.3 20:56:51 13° ESE 21:00:22 26° ENE 21:04:29 10° NNE
GEOS 3 Rocket 3.7 21:01:06 10° NE 21:06:30 67° ESE 21:11:50 10° SSW
ATLAS 5 CENTAUR R/B 1.4 21:04:28 10° SW 21:08:31 86° WNW 21:13:01 10° NE
Cosmos 2278 Rocket 4.3 21:05:53 10° NNE 21:08:39 14° NE 21:11:23 10° ENE
USA 215 3.4 21:03:44 10° NE 21:10:07 52° SE 21:16:26 10° SSW
USA 245 3.4 21:08:35 21° SE 21:10:28 48° ENE 21:14:15 10° N
Cosmos 1758 Rocket 3.5 21:08:25 10° S 21:12:53 75° E 21:17:23 10° NNE
Cosmos 1844 Rocket 2.9 21:08:49 10° NNW 21:14:21 60° ENE 21:18:16 19° SE
Cosmos 1400 Rocket 3.2 21:11:39 10° N 21:15:30 46° ENE 21:17:42 22° SE
SPOT 5 4.0 21:13:56 17° ESE 21:16:58 31° ENE 21:21:12 10° N
Meteor 2-10 Rocket 3.7 21:13:35 10° NNW 21:18:42 75° W 21:23:40 12° S
Spot 2 Rocket 3.5 21:16:44 17° SSE 21:20:40 75° ENE 21:25:47 10° N
OAO 3 Rocket 3.9 21:16:54 10° WSW 21:21:26 38° S 21:23:58 22° SE
Landsat 7 3.8 21:21:48 19° SSE 21:25:12 76° ENE 21:29:58 10° N
BREEZE M DEB (TANK) 3.6 21:24:12 10° NW 21:26:33 25° NNE 21:27:39 16° ENE
Cosmos 1745 Rocket 4.5 21:24:08 10° SSW 21:30:14 62° W 21:36:27 10° N
Cosmos 2181 Rocket 4.4 21:24:29 10° N 21:30:34 46° ENE 21:34:15 23° SE
SPOT 1/Viking Rocket 3.5 21:31:53 22° SSE 21:35:16 78° ENE 21:40:27 10° N
Cosmos 1953 Rocket 3.4 21:33:11 21° S 21:36:02 70° E 21:40:20 10° NNE
Cosmos 1328 4.2 21:37:17 12° SSW 21:40:50 63° W 21:44:46 10° N
SAR-Lupe-2 3.6 21:42:12 10° N 21:45:47 79° WNW 21:47:57 23° SSW
OAO 2 Rocket 3.7 21:41:09 10° WSW 21:46:11 45° S 21:48:29 28° ESE
Cosmos 1455 3.7 21:45:25 10° NNW 21:48:54 33° W 21:51:42 14° SSW
Cosmos 1825 Rocket 4.4 21:47:27 10° SSW 21:51:44 50° W 21:56:05 10° N
ATLAS CENTAUR R/B 2.2 21:54:09 10° NNW 21:57:29 32° NE 21:58:26 28° E
Cosmos 1980 4.5 21:56:55 29° ESE 21:57:56 31° ESE 22:02:49 10° NE
Alouette 2 Rocket 4.1 21:56:58 10° NNW 22:00:55 60° W 22:03:55 24° S
COSMOS 2428 2.6 21:57:26 12° SSW 22:02:39 84° ESE 22:08:21 10° NNE
Delta 2 Rocket 4.4 22:03:20 10° WSW 22:05:02 22° SW 22:05:02 22° SW
Cosmos 2322 4.4 22:01:00 10° SW 22:06:35 55° WNW 22:12:13 10° NNE
Cosmos 1844 4.0 22:02:58 10° NNW 22:08:40 62° WSW 22:11:25 30° S
Cosmos 1869 4.0 22:05:14 10° N 22:08:58 37° ENE 22:09:22 36° E
NOSS 0 Rocket 4.1 22:07:31 32° SSE 22:10:05 50° ESE 22:16:01 10° NE
CARTOSAT-1 3.8 22:10:04 37° S 22:11:39 65° W 22:15:57 10° NNW
Terra 1.8 22:10:34 42° SSE 22:12:10 76° ENE 22:16:56 10° N
Meteor 1-27 4.2 22:09:47 10° N 22:15:33 89° E 22:18:05 36° S
Cosmos 2237 Rocket 2.6 22:14:58 37° SE 22:16:06 41° ESE 22:21:25 10° NE
BREEZE-M DEB (TANK) 3.8 22:14:44 10° WNW 22:17:59 40° SW 22:18:37 37° SSW
Cosmos 2344 4.0 22:16:02 31° SSE 22:18:24 39° ESE 22:25:20 10° NE
Cosmos 2219 Rocket 2.5 22:12:57 10° SSW 22:18:30 65° WNW 22:24:05 10° NNE
Cosmos 1538 Rocket 4.3 22:15:17 15° SSW 22:19:46 67° WNW 22:25:06 10° NNE
Atlas Centaur 2 3.3 22:15:10 10° WSW 22:20:44 32° S 22:21:21 32° S
Cosmos 2360 Rocket 4.5 22:16:27 10° WSW 22:20:57 24° NW 22:25:30 10° N
NOSS 3-3 (A) 4.2 22:15:23 10° SW 22:21:08 68° NW 22:27:37 10° NNE
NOSS 3-3 (C) 4.2 22:15:29 10° SW 22:21:14 69° NW 22:27:44 10° NNE
BREEZE-M R/B 4.0 22:10:57 10° WNW 22:21:23 89° NNE 22:23:36 38° ESE
DELTA 2 R/B (1) 3.6 22:21:06 10° WSW 22:26:33 56° SSE 22:30:03 22° E
Cosmos 2333 Rocket 3.0 22:23:10 10° SW 22:28:40 50° WNW 22:34:14 10° NNE
Cosmos 1315 Rocket 3.1 22:25:06 10° NNW 22:29:11 65° W 22:29:55 52° SSW
Cosmos 2184 Rocket 3.9 22:27:11 35° S 22:29:58 81° E 22:36:17 10° N
Thor Agena Rocket 4.1 22:28:19 10° NNE 22:33:04 38° E 22:33:18 37° ESE
Meteor 2-2 Rocket 4.2 22:28:22 10° N 22:34:11 74° E 22:35:55 46° SSE
Cosmos 2221 2.4 22:34:27 10° N 22:38:50 89° E 22:39:20 70° S
ERS-1 Rocket 4.0 22:36:52 26° SW 22:38:57 37° W 22:43:38 10° NNW
BREEZE-M DEB (TANK) 4.2 22:35:31 10° WNW 22:39:17 22° N 22:41:21 11° NE
Cosmos 1892 2.7 22:41:59 69° NE 22:41:59 69° NE 22:45:28 10° N
ATLAS 2AS CENTAUR R/B 3.6 22:35:17 10° NNW 22:42:26 43° NE 22:46:25 23° ESE
EO 1 Del DPAF 4.5 22:42:31 10° NNE 22:44:59 30° ENE 22:44:59 30° ENE
Cosmos 2112 Rocket 4.0 22:48:24 56° SE 22:49:10 63° ESE 22:54:28 10° NNE
USA 215 4.1 22:46:48 10° NE 22:53:04 50° NNW 22:59:19 10° WSW
Cosmos 158 Rocket 3.6 22:52:56 68° SSE 22:53:23 74° ESE 22:58:17 10° NNE
Cosmos 2278 Rocket 2.1 22:47:58 10° NNW 22:53:41 80° ENE 22:54:59 55° SE
SPOT 5 4.3 22:53:10 24° SW 22:54:57 30° W 22:59:15 10° NW
Spot 4 4.1 22:59:07 52° E 22:59:36 54° ENE 23:04:16 10° N
SL-16 R/B 3.0 23:00:46 34° E 23:00:46 34° E 23:05:34 10° NE
Cosmos 2058 3.1 23:01:10 62° W 23:01:23 63° W 23:05:30 10° N
Cosmos 1408 3.3 23:03:24 49° NNE 23:03:24 49° NNE 23:06:06 10° N
Gblst 52 Del rocket 4.4 22:59:22 10° NW 23:05:16 84° NE 23:07:28 44° ESE
Cosmos 2056 Rocket 4.2 23:01:42 10° N 23:06:55 46° ENE 23:07:58 41° E
Cosmos 2154 Rocket 4.0 23:07:50 45° SSW 23:09:51 77° W 23:16:05 10° N
Nadezhda 3 Rocket 4.0 23:05:51 10° N 23:12:15 85° W 23:13:54 53° S
Cosmos 2341 Rocket 4.0 23:11:47 52° SE 23:12:58 62° E 23:19:06 10° NNE
Cosmos 1076 Rocket 3.9 23:12:54 52° W 23:13:11 53° W 23:17:23 10° N
Cosmos 1680 Rocket 3.9 23:15:57 43° SW 23:17:33 62° WNW 23:22:50 10° NNE
TSX-5 4.4 23:16:56 10° NW 23:19:55 52° WNW 23:19:55 52° WNW
Cosmos 2151 3.2 23:23:52 68° NNE 23:23:52 68° NNE 23:27:40 10° N
USA 267 3.2 23:21:24 46° SE 23:23:38 89° NE 23:30:15 10° NW
SL-8 Rocket 4.0 23:30:59 57° SE 23:31:55 65° E 23:38:01 10° NNE
Cosmos 1825 3.0 23:32:56 48° NNW 23:32:56 48° NNW 23:35:54 10° N
Cosmos 1340 4.4 23:34:23 25° NE 23:34:23 25° NE 23:36:25 10° NNE
BREEZE-M DEB (TANK) 3.9 23:30:20 10° WNW 23:32:45 25° WNW 23:32:45 25° WNW
COSMOS 2455 4.4 23:29:56 10° N 23:35:02 28° NE 23:38:24 17° E
ALOS 2 2.9 23:35:27 60° NE 23:35:27 60° NE 23:39:29 10° N
ATLAS CENTAUR R/B 3.6 23:33:36 10° WNW 23:34:36 14° W 23:34:36 14° W
Cosmos 1933 4.4 23:35:09 10° N 23:38:13 37° NE 23:38:13 37° NE
Cosmos 1151 Rocket 3.7 23:36:21 10° N 23:40:03 47° NE 23:40:03 47° NE
IRIDIUM 103 4.3 23:41:42 65° E 23:41:50 65° E 23:47:01 10° N
Cosmos 44 3.3 23:43:37 61° NNE 23:43:37 61° NNE 23:47:19 10° NNE
Cosmos 2369 Rocket 4.1 23:41:38 10° N 23:45:53 21° NE 23:48:49 15° E
GP-B 3.3 23:44:53 10° N 23:48:50 69° NNE 23:48:50 69° NNE
Cosmos 371 Rocket 3.8 23:45:32 10° N 23:50:14 48° ENE 23:50:25 48° ENE
Terra 4.3 23:49:27 10° W 23:50:25 11° W 23:51:34 10° WNW
